Time,TemperatureF,DewpointF,PressureIn,WindDirection,WindDirectionDegrees,WindSpeedMPH,WindSpeedGustMPH,Humidity,HourlyPrecipIn,Conditions,Clouds,dailyrainin,SoftwareType,DateUTC
2013-04-13 20:07:00,40.4,39.1,30.00,SE,142,0.0,1.0,95,0.73,,---,0.31,VWS V14.01,2013-04-14 03:07:00,
2013-04-13 20:09:00,40.4,39.1,30.00,SE,142,0.0,1.0,95,0.73,,---,0.31,VWS V14.01,2013-04-14 03:09:00,
2013-04-13 20:15:00,40.4,39.1,30.01,SE,142,5.0,5.0,95,0.00,,---,0.31,VWS V14.01,2013-04-14 03:15:00,
2013-04-13 20:16:00,40.4,39.1,30.01,SE,143,0.0,1.0,95,0.00,,---,0.31,VWS V14.01,2013-04-14 03:16:00,
2013-04-13 20:17:00,40.4,39.1,30.01,SE,143,0.0,0.0,95,0.00,,---,0.31,VWS V14.01,2013-04-14 03:17:00,
2013-04-13 20:18:00,40.4,39.1,30.01,SE,143,1.0,4.0,95,0.00,,---,0.31,VWS V14.01,2013-04-14 03:18:00,
2013-04-13 20:19:00,40.4,39.1,30.01,SE,143,1.0,1.0,95,0.00,,---,0.31,VWS V14.01,2013-04-14 03:19:00,
2013-04-13 20:20:00,40.4,39.1,30.01,SE,143,1.0,1.0,95,0.00,,---,0.31,VWS V14.01,2013-04-14 03:20:00,
2013-04-13 20:21:00,40.4,39.1,30.01,SE,143,2.0,2.0,95,0.00,,---,0.31,VWS V14.01,2013-04-14 03:21:00,
2013-04-13 20:22:00,40.4,39.1,30.01,SE,143,1.0,2.0,95,0.01,,---,0.32,VWS V14.01,2013-04-14 03:22:00,
2013-04-13 20:23:00,40.4,39.1,30.01,SE,143,1.0,2.0,95,0.01,,---,0.32,VWS V14.01,2013-04-14 03:23:00,
2013-04-13 20:24:00,40.4,39.1,30.01,SE,143,2.0,4.0,95,0.01,,---,0.32,VWS V14.01,2013-04-14 03:24:00,
2013-04-13 20:25:00,40.4,39.1,30.01,SE,143,1.0,2.0,95,0.01,,---,0.32,VWS V14.01,2013-04-14 03:25:00,
2013-04-13 20:26:00,40.4,39.1,30.01,SE,142,4.0,5.0,95,0.01,,---,0.32,VWS V14.01,2013-04-14 03:26:00,
2013-04-13 20:27:00,40.4,39.1,30.01,SE,142,2.0,5.0,95,0.01,,---,0.32,VWS V14.01,2013-04-14 03:27:00,
2013-04-13 20:28:00,40.4,39.3,30.01,SE,138,2.0,4.0,96,0.01,,---,0.32,VWS V14.01,2013-04-14 03:28:00,
2013-04-13 20:29:00,40.4,39.3,30.01,SE,136,2.0,4.0,96,0.01,,---,0.32,VWS V14.01,2013-04-14 03:29:00,
2013-04-13 20:30:00,40.4,39.3,30.01,SE,135,4.0,4.0,96,0.01,,---,0.32,VWS V14.01,2013-04-14 03:30:00,
2013-04-13 20:31:00,40.4,39.3,30.01,ESE,122,1.0,2.0,96,0.01,,---,0.32,VWS V14.01,2013-04-14 03:31:00,
2013-04-13 20:32:00,40.5,39.5,30.01,SE,129,4.0,5.0,96,0.01,,---,0.32,VWS V14.01,2013-04-14 03:32:00,
2013-04-13 20:33:00,40.4,39.3,30.01,SE,124,2.0,4.0,96,0.01,,---,0.32,VWS V14.01,2013-04-14 03:33:00,
2013-04-13 20:34:00,40.5,39.5,30.01,ESE,105,1.0,4.0,96,0.01,,---,0.32,VWS V14.01,2013-04-14 03:34:00,
2013-04-13 20:35:00,40.4,39.3,30.01,ESE,105,4.0,4.0,96,0.01,,---,0.32,VWS V14.01,2013-04-14 03:35:00,
2013-04-13 20:36:00,40.5,39.5,30.01,ESE,112,2.0,4.0,96,0.01,,---,0.32,VWS V14.01,2013-04-14 03:36:00,
2013-04-13 20:37:00,40.5,39.5,30.01,SE,137,4.0,5.0,96,0.01,,---,0.32,VWS V14.01,2013-04-14 03:37:00,
2013-04-13 20:38:00,40.5,39.5,30.01,SE,134,4.0,4.0,96,0.01,,---,0.32,VWS V14.01,2013-04-14 03:38:00,
2013-04-13 20:39:00,40.5,39.5,30.01,SE,141,2.0,5.0,96,0.01,,---,0.32,VWS V14.01,2013-04-14 03:39:00,
2013-04-13 20:40:00,40.5,39.5,30.01,SE,137,4.0,5.0,96,0.01,,---,0.32,VWS V14.01,2013-04-14 03:40:00,
2013-04-13 20:41:00,40.5,39.5,30.01,SE,141,0.0,4.0,96,0.01,,---,0.32,VWS V14.01,2013-04-14 03:41:00,
2013-04-13 20:42:00,40.5,39.5,30.01,SE,141,0.0,0.0,96,0.01,,---,0.32,VWS V14.01,2013-04-14 03:42:00,
2013-04-13 20:43:00,40.6,39.5,30.01,SE,141,0.0,2.0,96,0.01,,---,0.32,VWS V14.01,2013-04-14 03:43:00,
2013-04-13 20:44:00,40.5,39.5,30.01,SE,141,0.0,2.0,96,0.01,,---,0.32,VWS V14.01,2013-04-14 03:44:00,
2013-04-13 20:45:00,40.6,39.5,30.01,SE,141,0.0,2.0,96,0.01,,---,0.32,VWS V14.01,2013-04-14 03:45:00,
2013-04-13 20:46:00,40.6,39.5,30.01,SE,141,2.0,2.0,96,0.01,,---,0.32,VWS V14.01,2013-04-14 03:46:00,
2013-04-13 20:47:00,40.6,39.5,30.01,SE,141,2.0,2.0,96,0.01,,---,0.32,VWS V14.01,2013-04-14 03:47:00,
2013-04-13 20:48:00,40.6,39.5,30.01,SE,141,2.0,5.0,96,0.01,,---,0.32,VWS V14.01,2013-04-14 03:48:00,
2013-04-13 20:49:00,40.6,39.5,30.01,SE,141,1.0,4.0,96,0.01,,---,0.32,VWS V14.01,2013-04-14 03:49:00,
2013-04-13 20:50:00,40.6,39.5,30.01,SE,141,2.0,4.0,96,0.01,,---,0.32,VWS V14.01,2013-04-14 03:50:00,
2013-04-13 20:51:00,40.6,39.5,30.01,SE,141,1.0,2.0,96,0.01,,---,0.32,VWS V14.01,2013-04-14 03:51:00,
2013-04-13 20:52:00,40.6,39.5,30.01,SE,141,2.0,4.0,96,0.01,,---,0.32,VWS V14.01,2013-04-14 03:52:00,
2013-04-13 20:53:00,40.6,39.5,30.01,SE,144,2.0,5.0,96,0.01,,---,0.32,VWS V14.01,2013-04-14 03:53:00,
2013-04-13 20:54:00,40.6,39.5,30.01,SE,144,2.0,4.0,96,0.01,,---,0.32,VWS V14.01,2013-04-14 03:54:00,
2013-04-13 20:55:00,40.6,39.5,30.01,SE,144,0.0,2.0,96,0.01,,---,0.32,VWS V14.01,2013-04-14 03:55:00,
2013-04-13 20:56:00,40.6,39.5,30.01,SE,144,0.0,2.0,96,0.01,,---,0.32,VWS V14.01,2013-04-14 03:56:00,
2013-04-13 20:57:00,40.6,39.5,30.02,SE,144,0.0,0.0,96,0.01,,---,0.32,VWS V14.01,2013-04-14 03:57:00,
2013-04-13 20:58:00,40.6,39.5,30.02,SE,144,0.0,1.0,96,0.01,,---,0.32,VWS V14.01,2013-04-14 03:58:00,
2013-04-13 20:59:00,40.6,39.5,30.02,SE,144,0.0,1.0,96,0.01,,---,0.32,VWS V14.01,2013-04-14 03:59:00,
2013-04-13 21:00:00,40.6,39.5,30.02,SE,144,0.0,0.0,96,0.01,,---,0.32,VWS V14.01,2013-04-14 04:00:00,
2013-04-13 21:01:00,40.6,39.5,30.02,SE,144,0.0,0.0,96,0.01,,---,0.32,VWS V14.01,2013-04-14 04:01:00,
2013-04-13 21:02:00,40.7,39.7,30.02,SE,144,0.0,1.0,96,0.01,,---,0.32,VWS V14.01,2013-04-14 04:02:00,
2013-04-13 21:03:00,40.7,39.7,30.02,SE,144,4.0,4.0,96,0.01,,---,0.32,VWS V14.01,2013-04-14 04:03:00,
2013-04-13 21:04:00,40.7,39.7,30.02,South,170,5.0,5.0,96,0.01,,---,0.32,VWS V14.01,2013-04-14 04:04:00,
2013-04-13 21:05:00,40.7,39.7,30.02,South,173,6.0,7.0,96,0.01,,---,0.32,VWS V14.01,2013-04-14 04:05:00,
2013-04-13 21:06:00,40.7,39.7,30.02,South,170,5.0,5.0,96,0.01,,---,0.32,VWS V14.01,2013-04-14 04:06:00,
2013-04-13 21:07:00,40.7,39.7,30.02,SSW,198,6.0,6.0,96,0.01,,---,0.32,VWS V14.01,2013-04-14 04:07:00,
2013-04-13 21:08:00,40.7,39.7,30.02,South,185,3.0,6.0,96,0.01,,---,0.32,VWS V14.01,2013-04-14 04:08:00,
2013-04-13 21:09:00,40.7,39.7,30.02,South,185,2.0,3.0,96,0.01,,---,0.32,VWS V14.01,2013-04-14 04:09:00,
2013-04-13 21:10:00,40.6,39.5,30.02,South,186,2.0,5.0,96,0.01,,---,0.32,VWS V14.01,2013-04-14 04:10:00,
2013-04-13 21:11:00,40.6,39.5,30.02,South,190,4.0,5.0,96,0.01,,---,0.32,VWS V14.01,2013-04-14 04:11:00,
2013-04-13 21:12:00,40.6,39.5,30.02,SSE,156,1.0,5.0,96,0.01,,---,0.32,VWS V14.01,2013-04-14 04:12:00,
2013-04-13 21:13:00,40.6,39.5,30.02,SSE,166,4.0,5.0,96,0.01,,---,0.32,VWS V14.01,2013-04-14 04:13:00,
2013-04-13 21:14:00,40.5,39.5,30.02,SSE,157,4.0,5.0,96,0.01,,---,0.32,VWS V14.01,2013-04-14 04:14:00,
2013-04-13 21:15:00,40.5,39.5,30.02,SSE,157,2.0,4.0,96,0.01,,---,0.32,VWS V14.01,2013-04-14 04:15:00,
2013-04-13 21:16:00,40.5,39.5,30.02,SSE,157,2.0,4.0,96,0.01,,---,0.32,VWS V14.01,2013-04-14 04:16:00,
2013-04-13 21:17:00,40.5,39.5,30.02,SSE,153,4.0,5.0,96,0.02,,---,0.33,VWS V14.01,2013-04-14 04:17:00,
2013-04-13 21:18:00,40.5,39.5,30.02,SSE,154,2.0,4.0,96,0.02,,---,0.33,VWS V14.01,2013-04-14 04:18:00,
2013-04-13 21:19:00,40.5,39.5,30.02,SSE,167,4.0,4.0,96,0.02,,---,0.33,VWS V14.01,2013-04-14 04:19:00,
2013-04-13 21:20:00,40.5,39.5,30.02,South,171,2.0,5.0,96,0.02,,---,0.33,VWS V14.01,2013-04-14 04:20:00,
2013-04-13 21:21:00,40.5,39.5,30.02,South,170,4.0,5.0,96,0.02,,---,0.33,VWS V14.01,2013-04-14 04:21:00,
2013-04-13 21:22:00,40.5,39.5,30.02,South,179,4.0,5.0,96,0.02,,---,0.33,VWS V14.01,2013-04-14 04:22:00,
2013-04-13 21:23:00,40.5,39.5,30.02,South,178,4.0,5.0,96,0.01,,---,0.33,VWS V14.01,2013-04-14 04:23:00,
2013-04-13 21:24:00,40.5,39.5,30.02,South,178,5.0,5.0,96,0.01,,---,0.33,VWS V14.01,2013-04-14 04:24:00,
2013-04-13 21:25:00,40.5,39.5,30.02,South,190,3.0,5.0,96,0.02,,---,0.34,VWS V14.01,2013-04-14 04:25:00,
2013-04-13 21:26:00,40.5,39.5,30.02,SSW,203,6.0,7.0,96,0.02,,---,0.34,VWS V14.01,2013-04-14 04:26:00,
2013-04-13 21:27:00,40.5,39.5,30.02,South,190,3.0,3.0,96,0.02,,---,0.34,VWS V14.01,2013-04-14 04:27:00,
2013-04-13 21:28:00,40.6,39.5,30.02,SSW,194,5.0,6.0,96,0.02,,---,0.34,VWS V14.01,2013-04-14 04:28:00,
2013-04-13 21:29:00,40.5,39.5,30.02,South,175,7.0,7.0,96,0.02,,---,0.34,VWS V14.01,2013-04-14 04:29:00,
2013-04-13 21:30:00,40.6,39.5,30.03,South,190,2.0,7.0,96,0.03,,---,0.35,VWS V14.01,2013-04-14 04:30:00,
2013-04-13 21:31:00,40.6,39.5,30.03,SSW,209,5.0,6.0,96,0.03,,---,0.35,VWS V14.01,2013-04-14 04:31:00,
2013-04-13 21:32:00,40.6,39.5,30.03,SSW,202,4.0,5.0,96,0.03,,---,0.35,VWS V14.01,2013-04-14 04:32:00,
2013-04-13 21:33:00,40.6,39.5,30.03,South,190,6.0,7.0,96,0.03,,---,0.35,VWS V14.01,2013-04-14 04:33:00,
2013-04-13 21:34:00,40.6,39.5,30.03,South,182,4.0,7.0,96,0.04,,---,0.36,VWS V14.01,2013-04-14 04:34:00,
2013-04-13 21:35:00,40.6,39.5,30.03,SSW,198,5.0,7.0,96,0.04,,---,0.36,VWS V14.01,2013-04-14 04:35:00,
2013-04-13 21:36:00,40.5,39.5,30.03,South,184,7.0,9.0,96,0.04,,---,0.36,VWS V14.01,2013-04-14 04:36:00,
2013-04-13 21:37:00,40.6,39.5,30.03,South,188,9.0,9.0,96,0.04,,---,0.36,VWS V14.01,2013-04-14 04:37:00,
2013-04-13 21:38:00,40.5,39.5,30.03,South,189,2.0,6.0,96,0.04,,---,0.36,VWS V14.01,2013-04-14 04:38:00,
2013-04-13 21:39:00,40.5,39.5,30.03,South,178,4.0,6.0,96,0.04,,---,0.36,VWS V14.01,2013-04-14 04:39:00,
2013-04-13 21:40:00,40.5,39.5,30.03,South,179,5.0,6.0,96,0.04,,---,0.36,VWS V14.01,2013-04-14 04:40:00,
2013-04-13 21:41:00,40.5,39.5,30.03,SSE,148,2.0,6.0,96,0.05,,---,0.37,VWS V14.01,2013-04-14 04:41:00,
2013-04-13 21:42:00,40.5,39.5,30.03,SSE,161,4.0,6.0,96,0.04,,---,0.36,VWS V14.01,2013-04-14 04:42:00,
2013-04-13 21:43:00,40.5,39.5,30.03,SSW,207,5.0,7.0,96,0.05,,---,0.37,VWS V14.01,2013-04-14 04:43:00,
2013-04-13 21:44:00,40.5,39.5,30.03,SSW,198,5.0,6.0,96,0.05,,---,0.37,VWS V14.01,2013-04-14 04:44:00,
2013-04-13 21:47:00,40.5,39.5,30.03,South,184,3.0,6.0,96,0.05,,---,0.37,VWS V14.01,2013-04-14 04:47:00,
2013-04-13 21:52:00,40.5,39.5,30.03,SSW,198,5.0,7.0,96,0.06,,---,0.38,VWS V14.01,2013-04-14 04:52:00,
2013-04-13 21:58:00,40.5,39.5,30.03,SSW,196,5.0,5.0,96,0.06,,---,0.38,VWS V14.01,2013-04-14 04:58:00,
2013-04-13 22:03:00,40.4,39.3,30.03,South,188,5.0,6.0,96,0.06,,---,0.38,VWS V14.01,2013-04-14 05:03:00,
2013-04-13 22:08:00,40.3,39.2,30.03,SSW,198,3.0,6.0,96,0.06,,---,0.38,VWS V14.01,2013-04-14 05:08:00,
2013-04-13 22:13:00,40.3,39.2,30.03,SSW,208,5.0,6.0,96,0.06,,---,0.38,VWS V14.01,2013-04-14 05:13:00,
2013-04-13 22:18:00,40.2,39.2,30.03,South,175,6.0,8.0,96,0.06,,---,0.38,VWS V14.01,2013-04-14 05:18:00,
2013-04-13 22:23:00,40.2,39.2,30.03,SSW,207,6.0,8.0,96,0.05,,---,0.38,VWS V14.01,2013-04-14 05:23:00,
2013-04-13 22:28:00,40.1,39.0,30.03,SSW,196,5.0,7.0,96,0.04,,---,0.38,VWS V14.01,2013-04-14 05:28:00,
2013-04-13 22:33:00,40.0,38.7,30.03,South,179,8.0,9.0,95,0.03,,---,0.38,VWS V14.01,2013-04-14 05:33:00,
2013-04-13 22:38:00,40.0,38.7,30.03,SSW,203,5.0,10.0,95,0.02,,---,0.38,VWS V14.01,2013-04-14 05:38:00,
2013-04-13 22:43:00,40.0,38.7,30.04,SSW,192,3.0,6.0,95,0.02,,---,0.38,VWS V14.01,2013-04-14 05:43:00,
2013-04-13 22:48:00,40.0,38.7,30.04,South,179,4.0,9.0,95,0.01,,---,0.38,VWS V14.01,2013-04-14 05:48:00,
2013-04-13 22:53:00,40.0,38.7,30.04,SSW,193,3.0,5.0,95,0.00,,---,0.38,VWS V14.01,2013-04-14 05:53:00,
2013-04-13 22:58:00,40.0,38.7,30.04,South,190,2.0,4.0,95,0.00,,---,0.38,VWS V14.01,2013-04-14 05:58:00,
2013-04-13 23:03:00,40.0,38.7,30.04,South,174,0.0,2.0,95,0.00,,---,0.38,VWS V14.01,2013-04-14 06:03:00,
2013-04-13 23:08:00,40.1,38.8,30.05,South,174,0.0,0.0,95,0.00,,---,0.38,VWS V14.01,2013-04-14 06:08:00,
2013-04-13 23:13:00,40.1,38.8,30.05,South,174,0.0,0.0,95,0.01,,---,0.39,VWS V14.01,2013-04-14 06:13:00,
2013-04-13 23:18:00,40.1,38.8,30.05,South,174,0.0,0.0,95,0.01,,---,0.39,VWS V14.01,2013-04-14 06:18:00,
2013-04-13 23:23:00,40.1,38.8,30.05,South,174,1.0,2.0,95,0.02,,---,0.40,VWS V14.01,2013-04-14 06:23:00,
2013-04-13 23:28:00,40.1,38.8,30.05,South,174,0.0,1.0,95,0.02,,---,0.40,VWS V14.01,2013-04-14 06:28:00,
2013-04-13 23:33:00,40.2,38.9,30.05,South,174,4.0,5.0,95,0.02,,---,0.40,VWS V14.01,2013-04-14 06:33:00,
2013-04-13 23:38:00,40.2,38.9,30.05,South,174,2.0,4.0,95,0.02,,---,0.40,VWS V14.01,2013-04-14 06:38:00,
2013-04-13 23:43:00,40.1,38.8,30.05,South,174,4.0,5.0,95,0.02,,---,0.40,VWS V14.01,2013-04-14 06:43:00,
2013-04-13 23:48:00,40.1,39.0,30.05,SSW,192,3.0,4.0,96,0.02,,---,0.40,VWS V14.01,2013-04-14 06:48:00,
2013-04-13 23:53:00,40.1,39.0,30.05,SSW,202,5.0,5.0,96,0.03,,---,0.41,VWS V14.01,2013-04-14 06:53:00,
2013-04-13 23:58:00,40.0,39.0,30.05,SSW,201,7.0,8.0,96,0.04,,---,0.42,VWS V14.01,2013-04-14 06:58:00,